Hourly Data Report for April 23, 2021

NANAIMO A
BRITISH COLUMBIA
Current Station Operator: NAVCAN

49°03'16.000" N
123°52'12.000" W
28.00 m
1025365
YCD

Download Data

Hourly Data (April 2021)
Hourly Data Report for April 23, 2021
TIME
LST
Temp Definition
°C
Dew Point Definition
°C
Rel Hum Definition
%
Precip. Amount Definition
mm

Wind Dir Definition
10's deg

Wind Spd Definition
km/h
Visibility Definition
km
Stn Press Definition
kPa
Hmdx Definition


Wind Chill Definition


Weather Definition


00:00 7.1 4.2 82 LegendMM 2 3 LegendMM 100.95     LegendNANA
01:00 6.8 4.5 85 LegendMM 6 3 LegendMM 100.97     LegendNANA
02:00 6.9 4.5 85 LegendMM 29 1 LegendMM 100.99     LegendNANA
03:00 5.7 3.9 88 LegendMM 4 4 LegendMM 100.99     LegendNANA
04:00 5.9 4.8 93 LegendMM 3 1 LegendMM 100.98     LegendNANA
05:00 6.0 4.1 88 LegendMM 24 6 LegendMM 100.98     LegendNANA
06:00 5.6 4.8 94 LegendMM 15 3 LegendMM 100.97     LegendNANA
07:00 9.2 6.5 83 LegendMM 35 1 LegendMM 101.02     LegendNANA
08:00 10.8 8.3 84 LegendMM 6 5 LegendMM 101.03     LegendNANA
09:00 12.4 7.0 69 LegendMM 8 8 LegendMM 101.00     LegendNANA
10:00 12.4 7.1 70 LegendMM 5 14 LegendMM 101.02     LegendNANA
11:00 13.1 7.4 68 LegendMM 8 12 LegendMM 101.01     LegendNANA
12:00 13.5 7.3 66 LegendMM 10 14 LegendMM 100.98     LegendNANA
13:00 13.3 7.1 66 LegendMM 6 13 LegendMM 100.95     LegendNANA
14:00 13.8 7.1 64 LegendMM 7 13 LegendMM 100.91     LegendNANA
15:00 13.5 7.3 66 LegendMM 9 11 LegendMM 100.85     LegendNANA
16:00 13.3 7.2 66 LegendMM 6 8 LegendMM 100.80     LegendNANA
17:00 12.8 7.4 70 LegendMM 6 10 LegendMM 100.77     LegendNANA
18:00 12.3 7.3 71 LegendMM 4 5 LegendMM 100.72     LegendNANA
19:00 11.3 7.3 76 LegendMM 4 4 LegendMM 100.69     LegendNANA
20:00 11.5 5.3 66 LegendMM 27 7 LegendMM 100.70     LegendNANA
21:00 11.0 4.0 62 LegendMM 25 9 LegendMM 100.71     LegendNANA
22:00 10.6 3.8 63 LegendMM 26 6 LegendMM 100.70     LegendNANA
23:00 10.6 3.2 60 LegendMM 28 7 LegendMM 100.71     LegendNANA

Notes on Data Quality.

Legend

  • E = Estimated
  • M = Missing
  • NA = Not Available*
  • [empty] = Indicates an unobserved value
Date modified: